Location: Cornospital
(48.0620°N, 3.3837°W)
Time: 20:42:34
(UTC+00:00)

Genesis I - Pass Details

Date: 17 June 2021
Orbit: 476 x 543 km, 64.5° (Epoch: 03 August)

Event Time Altitude Azimuth Distance (km) Brightness Sun altitude
Rises 21:23:24 0° 232° (SW) 2,578 6.8 -8.9°
Reaches altitude 10° 21:25:35 10° 238° (WSW) 1,710 5.9 -9.1°
Maximum altitude 21:29:17 48° 314° (NW) 677 4.3 -9.5°
Drops below altitude 10° 21:33:07 10° 30° (NNE) 1,762 6.2 -9.9°
Sets 21:35:24 0° 36° (NE) 2,666 7.1 -10.1°
